Skip Page Navigation
NASA JPL Caltech
NASA Logo - Jet Propulsion Laboratory + View the NASA Portal
+ Near-Earth Object (NEO) Program
Search JPL
JPL Home Earth Solar System Stars & Galaxies Technology
JPL Solar System Dynamics
BODIES ORBITS EPHEMERIDES TOOLS PHYSICAL DATA DISCOVERY FAQ SITE MAP
JPL Small-Body Database Browser
Search: [ help ]  
349 Dembowska (1892 T)
Classification: Main-belt Asteroid          SPK-ID: 2000349
Ephemeris | Orbit Diagram | Orbital Elements | Physical Parameters | Discovery Circumstances ]

[ hide orbit diagram ]
Orbit Diagram
Note: Make sure you have Java enabled on your browser to see the applet. This applet is provided as a 3D orbit visualization tool. The applet was implemented using 2-body methods, and hence should not be used for determining accurate long-term trajectories (over several years or decades) or planetary encounter circumstances. For accurate long-term ephemerides, please instead use our Horizons system.
Orbit Viewer

Additional Notes: the orbits shown in the applet are color coded. The planets are white lines, and the asteroid/comet is a blue line. The bright white line indicates the portion of the orbit that is above the ecliptic plane, and the darker portion is below the ecliptic plane. Likewise for the asteroid/comet orbit, the light blue indicates the portion above the ecliptic plane, and the dark blue the portion below the ecliptic plane.

Orbit Viewer applet originally written and kindly provided by Osamu Ajiki (AstroArts), and further modified by Ron Baalke (JPL).


Orbital Elements at Epoch 2456400.5 (2013-Apr-18.0) TDB
Reference: JPL 74 (heliocentric ecliptic J2000)
 Element Value Uncertainty (1-sigma)   Units 
e .09103964143823631 3.5754e-08  
a 2.926378826296002 6.5782e-09 AU
q 2.659962347237567 1.0488e-07 AU
i 8.246335570483716 3.9465e-06 deg
node 32.42517039368252 3.0016e-05 deg
peri 347.2999415919904 3.8326e-05 deg
M 69.1123140404567 2.5418e-05 deg
tp 2456049.467619481842
(2012-May-01.96761948)
0.0001288 JED
period 1828.496972515807
5.01
6.1654e-06
1.688e-08
d
yr
n .1968830167132737 6.6386e-10 deg/d
Q 3.192795305354437 7.177e-09 AU
  Orbit Determination Parameters
   # obs. used (total)      1992  
   data-arc span      43938 days (120.30 yr)  
   first obs. used      1892-12-11  
   last obs. used      2013-03-30  
   planetary ephem.      DE405  
   SB-pert. ephem.      SB405-CPV-2  
   condition code      0  
   fit RMS      .66506  
   data source      ORB  
   producer      Otto Matic  
   solution date      2013-Apr-29 12:34:39  

Additional Information
 Earth MOID = 1.66276 AU 
 T_jup = 3.256 
[ show covariance matrix ]

Ephemeris | Orbit Diagram | Orbital Elements | Physical Parameters | Discovery Circumstances ]

Physical Parameter Table
Parameter Symbol Value Units Sigma Reference Notes
absolute magnitude H 5.93 mag n/a IRAS-A-FPA-3-RDR-IMPS-V6.0 IRAS observations used: 17
magnitude slope G 0.37   n/a PDS3 (MPC 17258) Fit
diameter diameter 139.77 km 4.3 IRAS-A-FPA-3-RDR-IMPS-V6.0 IRAS observations used: 17
rotation period rot_per 4.701 h n/a Asteroid Lightcurve DataBase (Rev. 2013-May-01) Published Reference List:
[Chang, Y.C.; Chang, C.-s. (1963) Acta Astron. Sin. 11, 139-149.]
[Tedesco, E.F. (1979) PhD Dissertation, New. Mex. State Univ. 280pp.]
[Zappala, V.; van Houten-Groeneveld, I.; van Houten, C.J. (1979) Astron. Astrophys. Suppl. Ser. 35, 213-221.]
[Haupt, H. (1980) Mitt. Univ. Graz No. 69.]
[Magnusson, P. (1986) Icarus 68, 1-39.]
[Weidenschilling, S.J.; Chapman, C.R.; Davis, D.R.; Greenberg, R.; et al. (1987) Icarus 70, 191-245.]
[Lupishko, D.F.; Velichko, F.P. (1987) Kin. Fiz. Neb. Tel 3(1), 57-65; Kinematics and Physics of Celestial Bodies 3(1), 63-71.]
[Di Martino, M.; Zappala, V.; De Sanctis, G.; Cacciatori, S. (1987) Icarus 69, 338-353.]
[Lagerkvist, C.I.; Magnusson, P.; Williams, I.P.; Buontempo, M.E.; et al. (1988) Astron. Astrophys. Suppl. Ser. 73, 395-405.]
[Drummond, J.D.; Weidenschilling, S.J.; Chapman, C.R.; Davis, D.R. (1988) Icarus 76, 19-77.]
[Magnusson, P. (1990) Icarus 85, 229-240.]
[Drummond, J.D.; Weidenschilling, S.J.; Chapman, C.R.; Davis, D.R. (1991) Icarus 89, 44-64.]
[De Angelis, G. (1995) Planet. Space Sci. 43, 649-682.]
[Behrend, R. (2002) Observatoire de Geneve web site, http://obswww.unige.ch/~behrend/page_cou.html]
[Torppa, J.; Kaasalainen, M.; Michalowski, T.; Kwiatkowski, T.; et al. (2003) Icarus 164, 346-383.]
[Majaess, D.J.; Tanner, J.; Savoy, J.; Sampson, B. (2008) Minor Planet Bul. 35, 88-91.]
[Durech, J. (2011) Database of Asteroid Models from Inversion Techniques (DAMIT). http://astro.troja.mff.cuni.cz/projects/aster oids3D/web.php]
geometric albedo albedo 0.3840   0.025 IRAS-A-FPA-3-RDR-IMPS-V6.0 IRAS observations used: 17
B-V BV .945 mag .028 EAR-A-5-DDR-UBV-MEAN-VALUES-V1.1 #obs=25; phase (min.=2.27, mean=13.08, max.=21.36) deg.
U-B UB .540 mag .042 EAR-A-5-DDR-UBV-MEAN-VALUES-V1.1 #obs=6; phase (min.=3.18, mean=12.04, max.=20.64) deg.
Tholen spectral type spec_T R   n/a EAR-A-5-DDR-TAXONOMY-V4.0 used 7 color indices; used ground-based radiometric albedo
SMASSII spectral type spec_B R   n/a EAR-A-5-DDR-TAXONOMY-V4.0 based on a high-resolution spectrum by Xu et al. (1995) or Bus and Binzel (2002)

349 Dembowska (1892 T)          Discovered 1892-Dec-09 by Charlois, A. at Nice
Reference: DISCOVERY.DBLast Updated: 2003-08-29
Ephemeris | Orbit Diagram | Orbital Elements | Physical Parameters | Discovery Circumstances ]
ABOUT SSD CREDITS/AWARDS PRIVACY/COPYRIGHT GLOSSARY LINKS
FirstGov 2013-Jun-19 08:34 UT
(server date/time)  
NASA Home Page
Site Manager:   Donald K. Yeomans
Webmaster  Alan B. Chamberlin